Hourly Data Report for October 05, 2017

All times are specified in Local Standard Time (LST). Add 1 hour to adjust for Daylight Saving Time where and when it is observed.

EMERSON AUTO
MANITOBA

49°00'00.000" N
97°14'15.000" W
242.00 m
5020881
71560
WEX

Download Data

Hourly Data (October 2017)
Hourly Data Report for October 5, 2017
Temp Definition
°C
Dew Point Temp Definition
°C
Rel Hum Definition
%
Wind Dir Definition
10's deg

Wind Spd Definition
km/h
Visibility Definition
km
Stn Press Definition
kPa
Hmdx Definition


Wind Chill Definition


Weather Definition


TIME
00:00 1.8 0.7 92 24 7   99.03     LegendNANA
01:00 0.8 0.3 96 28 6   99.04     LegendNANA
02:00 1.3 0.6 95 25 10   99.05     LegendNANA
03:00 0.3 -0.4 95 20 11   99.07     LegendNANA
04:00 -0.4 -0.9 96 21 8   99.09   -3 LegendNANA
05:00 -1.4 -1.6 98 26 7   99.09   -4 LegendNANA
06:00 -1.5 -1.7 98 30 7   99.11   -4 LegendNANA
07:00 -1.8 -2.0 99 28 4   99.14   -3 LegendNANA
08:00 1.9 1.1 94 30 3   99.18     LegendNANA
09:00 6.4 3.3 81 36 6   99.19     LegendNANA
10:00 9.8 3.5 65 1 12   99.20     LegendNANA
11:00 10.8 2.3 56 2 11   99.18     LegendNANA
12:00 12.1 2.3 51 33 8   99.16     LegendNANA
13:00 13.2 3.7 53 1 11   99.10     LegendNANA
14:00 14.0 3.6 50 34 16   99.06     LegendNANA
15:00 14.5 3.4 47 33 13   99.03     LegendNANA
16:00 13.9 2.3 45 31 11   98.99     LegendNANA
17:00 13.3 1.7 45 32 9   98.97     LegendNANA
18:00 10.2 2.1 57 35 9   98.94     LegendNANA
19:00 4.6 1.7 81 1 3   98.96     LegendNANA
20:00 3.7 1.9 88 5 5   98.97     LegendNANA
21:00 2.3 1.5 94 13 5   98.96     LegendNANA
22:00 1.1 0.6 96 14 4   98.96     LegendNANA
23:00 1.8 1.5 98 17 7   98.93     LegendNANA

Notes on Data Quality.

Legend

  • E = Estimated
  • M = Missing
  • NA = Not Available
  • ‡ = Partner data that is not subject to review by the National Climate Archives
Date modified: